Volver al catálogo

YZ-1 R/B

ActivoMEO
NORAD 58656·ROCKET BODY·🇨🇳 China

Lanzado Dec 26, 2023 desde Xichang Satellite Launch Center

Loading…

Próximos Pases (próximas 24 horas)

TLE

ActualizadoSource: Space-Track

Época: Sep 11, 2026, 23:29 UTC

1 58656U 23207C   26254.97896163 -.00000030  00000-0  00000-0 0  9996
2 58656  55.9188  61.8922 0025711 348.1597  11.8003  1.79266045 17763

Sigue YZ-1 R/B en tiempo real con AllMySat

Download on the App Store